sat.trackr.live / text

‹ back to catalog

STARLINK-33910

NORAD 63916 · 2025-095AC

PAYLOAD ACTIVE UNKNOWN

§ Identity

Operator
Country
US
Launch date
2025-05-10
Launch site
AFETR
Launch vehicle
Mass (kg)
RCS (m²)

Purposes: comms

External: N2YO · Heavens-Above · Gunter

§ Orbital elements

Epoch: 2026-05-24T14:44:14.854848Z

Period
94.27 min
Inclination
42.9953°
Eccentricity
0.0000625
Mean motion
15.27591005 rev/d
Perigee alt
482.6 km
Apogee alt
483.4 km
Semi-major
6,861.2 km
B*
3.0539e-4
RAAN
107.0752°
Arg perigee
318.1278°
Mean anomaly
41.9526°
Rev number
5,939

§ Raw data

STARLINK-339101 63916U 25095AC  26144.61406082  .00008154  00000+0  30539-3 0  99902 63916  42.9953 107.0752 0000625 318.1278  41.9526 15.27591005 59392

JSON: /api/v1/satellites/63916 · /tle

For live sub-satellite position, see the globe view (requires WebGL).

§ Visibility from observer

Set your observer location to see the next 7 days of passes ≥ 10°. The values pass through the URL so the page stays shareable.

No JS? Fill the form by hand. The geolocation button needs JavaScript.